| time (UTC) | temp F | wind direction | speed MPH | gust MPH | rain 1hr in | rain 24hr in | rain mn in | humidity % | barometer mb |
| 20260506221539 | 75 | 185 | 1.0 | 7.0 | 0.00 | 0.00 | 0.00 | 51 | 1014.9 |
| 20260506220039 | 75 | 235 | 1.0 | 9.0 | 0.00 | 0.00 | 0.00 | 52 | 1015.0 |
| 20260506214537 | 76 | 267 | 1.0 | 12.0 | 0.00 | 0.00 | 0.00 | 51 | 1015.1 |
| 20260506213035 | 76 | 211 | 1.0 | 6.0 | 0.00 | 0.00 | 0.00 | 49 | 1015.2 |
| 20260506211533 | 76 | 297 | 0.0 | 5.0 | 0.00 | 0.00 | 0.00 | 50 | 1015.4 |
| 20260506210033 | 77 | 274 | 1.0 | 7.0 | 0.00 | 0.00 | 0.00 | 49 | 1015.5 |
| 20260506204531 | 76 | 201 | 0.0 | 4.0 | 0.00 | 0.00 | 0.00 | 49 | 1015.6 |
| 20260506203030 | 77 | 230 | 1.0 | 9.0 | 0.00 | 0.00 | 0.00 | 48 | 1015.7 |
| 20260506201540 | 77 | 207 | 0.0 | 1.0 | 0.00 | 0.00 | 0.00 | 45 | 1015.8 |
| 20260506200027 | 76 | 160 | 0.0 | 2.0 | 0.00 | 0.00 | 0.00 | 45 | 1016.0 |
| 20260506194521 | 75 | 243 | 0.0 | 0.0 | 0.00 | 0.00 | 0.00 | 48 | 1016.2 |
| 20260506193017 | 74 | 100 | 0.0 | 2.0 | 0.00 | 0.00 | 0.00 | 49 | 1016.4 |
| 20260506191513 | 73 | 128 | 0.0 | 0.0 | 0.00 | 0.00 | 0.00 | 50 | 1016.6 |
| 20260506190008 | 72 | 283 | 0.0 | 3.0 | 0.00 | 0.00 | 0.00 | 53 | 1016.7 |
| 20260506184504 | 71 | 174 | 0.0 | 1.0 | 0.00 | 0.00 | 0.00 | 57 | 1017.0 |
| 20260506183001 | 70 | 245 | 0.0 | 2.0 | 0.00 | 0.00 | 0.00 | 58 | 1017.1 |
| 20260506181557 | 69 | 171 | 0.0 | 0.0 | 0.00 | 0.00 | 0.00 | 60 | 1017.3 |
| 20260506180054 | 68 | 60 | 0.0 | 0.0 | 0.00 | 0.00 | 0.00 | 62 | 1017.3 |
| 20260506174549 | 67 | 217 | 0.0 | 1.0 | 0.00 | 0.00 | 0.00 | 64 | 1017.5 |
| 20260506173100 | 66 | 75 | 0.0 | 0.0 | 0.00 | 0.00 | 0.00 | 67 | 1017.6 |
| 20260506171551 | 64 | 43 | 0.0 | 0.0 | 0.00 | 0.00 | 0.00 | 70 | 1017.7 |
| 20260506170036 | 62 | 98 | 0.0 | 0.0 | 0.00 | 0.00 | 0.00 | 74 | 1017.8 |
| 20260506164532 | 59 | 102 | 0.0 | 2.0 | 0.00 | 0.00 | 0.00 | 81 | 1018.1 |
| 20260506163038 | 57 | 19 | 0.0 | 1.0 | 0.00 | 0.00 | 0.00 | 87 | 1018.0 |
| 20260506161523 | 55 | 51 | 0.0 | 0.0 | 0.00 | 0.00 | 0.00 | 92 | 1018.2 |
| 20260506160022 | 53 | 59 | 0.0 | 0.0 | 0.00 | 0.00 | 0.00 | 93 | 1018.3 |
| 20260506154517 | 51 | 104 | 0.0 | 0.0 | 0.00 | 0.00 | 0.00 | 93 | 1018.5 |
| 20260506153010 | 50 | 103 | 0.0 | 0.0 | 0.00 | 0.00 | 0.00 | 93 | 1018.5 |
| 20260506151509 | 49 | 325 | 0.0 | 0.0 | 0.00 | 0.00 | 0.00 | 93 | 1018.6 |
| 20260506150007 | 49 | 27 | 0.0 | 0.0 | 0.00 | 0.00 | 0.00 | 93 | 1018.7 |
| 20260506144503 | 48 | 238 | 0.0 | 0.0 | 0.00 | 0.00 | 0.00 | 93 | 1018.6 |
| 20260506143100 | 47 | 32 | 0.0 | 0.0 | 0.00 | 0.00 | 0.00 | 93 | 1018.5 |
| 20260506141558 | 46 | 80 | 0.0 | 0.0 | 0.00 | 0.00 | 0.00 | 93 | 1018.3 |
| 20260506140101 | 45 | 294 | 0.0 | 0.0 | 0.00 | 0.00 | 0.00 | 92 | 1018.2 |
| 20260506134551 | 44 | 294 | 0.0 | 0.0 | 0.00 | 0.00 | 0.00 | 92 | 1018.0 |
| 20260506133051 | 43 | 294 | 0.0 | 0.0 | 0.00 | 0.00 | 0.00 | 91 | 1017.8 |
| 20260506131546 | 43 | 294 | 0.0 | 0.0 | 0.00 | 0.00 | 0.00 | 91 | 1017.8 |
| 20260506130049 | 43 | 294 | 0.0 | 0.0 | 0.00 | 0.00 | 0.00 | 91 | 1017.7 |
| 20260506124544 | 43 | 294 | 0.0 | 0.0 | 0.00 | 0.00 | 0.00 | 90 | 1017.5 |
| 20260506123043 | 43 | 294 | 0.0 | 0.0 | 0.00 | 0.00 | 0.00 | 90 | 1017.4 |
| 20260506121540 | 43 | 294 | 0.0 | 0.0 | 0.00 | 0.00 | 0.00 | 90 | 1017.3 |
| 20260506120039 | 43 | 294 | 0.0 | 0.0 | 0.00 | 0.00 | 0.00 | 90 | 1017.2 |
| 20260506114540 | 44 | 294 | 0.0 | 0.0 | 0.00 | 0.00 | 0.00 | 90 | 1017.0 |
| 20260506113037 | 44 | 294 | 0.0 | 0.0 | 0.00 | 0.00 | 0.00 | 90 | 1017.1 |
| 20260506111541 | 44 | 294 | 0.0 | 0.0 | 0.00 | 0.00 | 0.00 | 90 | 1017.2 |
| 20260506110036 | 44 | 294 | 0.0 | 0.0 | 0.00 | 0.00 | 0.00 | 90 | 1017.1 |
| 20260506104541 | 44 | 294 | 0.0 | 0.0 | 0.00 | 0.00 | 0.00 | 90 | 1017.1 |
| 20260506103034 | 44 | 294 | 0.0 | 0.0 | 0.00 | 0.00 | 0.00 | 89 | 1017.1 |
| 20260506101536 | 44 | 294 | 0.0 | 0.0 | 0.00 | 0.00 | 0.00 | 89 | 1017.1 |
| 20260506100030 | 44 | 294 | 0.0 | 0.0 | 0.00 | 0.00 | 0.00 | 89 | 1017.0 |
| 20260506094529 | 44 | 294 | 0.0 | 0.0 | 0.00 | 0.00 | 0.00 | 89 | 1016.9 |
| 20260506093045 | 45 | 294 | 0.0 | 0.0 | 0.00 | 0.00 | 0.00 | 89 | 1016.8 |
| 20260506091526 | 45 | 294 | 0.0 | 0.0 | 0.00 | 0.00 | 0.00 | 88 | 1016.8 |
| 20260506090025 | 45 | 294 | 0.0 | 0.0 | 0.00 | 0.00 | 0.00 | 88 | 1016.9 |
| 20260506084525 | 45 | 294 | 0.0 | 0.0 | 0.00 | 0.00 | 0.00 | 88 | 1016.9 |
| 20260506083023 | 45 | 294 | 0.0 | 0.0 | 0.00 | 0.00 | 0.00 | 88 | 1016.9 |
| 20260506081521 | 46 | 294 | 0.0 | 0.0 | 0.00 | 0.00 | 0.00 | 87 | 1016.8 |
| 20260506073015 | 47 | 294 | 0.0 | 0.0 | 0.00 | 0.00 | 0.00 | 86 | 1016.7 |
| 20260506071512 | 47 | 294 | 0.0 | 0.0 | 0.00 | 0.00 | 0.00 | 86 | 1016.5 |
| 20260506061508 | 49 | 294 | 0.0 | 0.0 | 0.00 | 0.00 | 0.00 | 84 | 1015.8 |
| 20260506044613 | 53 | 240 | 0.0 | 0.0 | 0.00 | 0.00 | 0.00 | 81 | 1015.1 |
| 20260506043056 | 53 | 230 | 0.0 | 0.0 | 0.00 | 0.00 | 0.00 | 80 | 1015.0 |
| 20260506041606 | 54 | 286 | 0.0 | 0.0 | 0.00 | 0.00 | 0.00 | 80 | 1014.7 |
| 20260506040056 | 54 | 289 | 0.0 | 0.0 | 0.00 | 0.00 | 0.00 | 79 | 1014.5 |
| 20260506034550 | 55 | 289 | 0.0 | 0.0 | 0.00 | 0.00 | 0.00 | 77 | 1014.3 |
| 20260506033052 | 55 | 93 | 0.0 | 0.0 | 0.00 | 0.00 | 0.00 | 77 | 1014.0 |
| 20260506031548 | 56 | 166 | 0.0 | 0.0 | 0.00 | 0.00 | 0.00 | 76 | 1013.7 |
| 20260506030045 | 56 | 261 | 0.0 | 0.0 | 0.00 | 0.00 | 0.00 | 75 | 1013.5 |
| 20260506024545 | 56 | 190 | 0.0 | 0.0 | 0.00 | 0.00 | 0.00 | 75 | 1013.3 |
| 20260506023053 | 57 | 203 | 0.0 | 2.0 | 0.00 | 0.00 | 0.00 | 76 | 1013.1 |
| 20260506021544 | 57 | 246 | 0.0 | 3.0 | 0.00 | 0.00 | 0.00 | 75 | 1012.9 |
| 20260506020111 | 57 | 244 | 0.0 | 6.0 | 0.00 | 0.00 | 0.00 | 75 | 1012.8 |
| 20260506014544 | 58 | 322 | 0.0 | 5.0 | 0.00 | 0.00 | 0.00 | 73 | 1012.9 |
| 20260506013043 | 59 | 252 | 0.0 | 1.0 | 0.00 | 0.00 | 0.00 | 72 | 1012.8 |
| 20260506011547 | 59 | 246 | 0.0 | 6.0 | 0.00 | 0.00 | 0.00 | 70 | 1012.8 |
| 20260506010042 | 60 | 205 | 0.0 | 2.0 | 0.00 | 0.00 | 0.00 | 68 | 1012.8 |
| 20260506004544 | 60 | 252 | 0.0 | 5.0 | 0.00 | 0.00 | 0.00 | 68 | 1012.8 |
| 20260506003041 | 60 | 245 | 0.0 | 5.0 | 0.00 | 0.00 | 0.00 | 68 | 1012.8 |
| 20260506001547 | 61 | 252 | 2.0 | 11.0 | 0.00 | 0.00 | 0.00 | 67 | 1012.8 |
| 20260506000055 | 62 | 236 | 1.0 | 6.0 | 0.00 | 0.00 | 0.00 | 66 | 1012.7 |
| 20260505234543 | 63 | 223 | 0.0 | 6.0 | 0.00 | 0.00 | 0.00 | 67 | 1012.7 |
| 20260505233040 | 63 | 200 | 2.0 | 7.0 | 0.00 | 0.00 | 0.00 | 64 | 1012.8 |
| 20260505231538 | 64 | 209 | 1.0 | 6.0 | 0.00 | 0.00 | 0.00 | 64 | 1012.8 |
| 20260505230045 | 64 | 229 | 0.0 | 6.0 | 0.00 | 0.00 | 0.00 | 63 | 1012.8 |
| 20260505224545 | 65 | 300 | 0.0 | 7.0 | 0.00 | 0.00 | 0.00 | 62 | 1013.0 |
| 20260505223039 | 65 | 219 | 1.0 | 6.0 | 0.00 | 0.00 | 0.00 | 62 | 1013.0 |